Flag for Germany Weather past 2 weeks in Cuxhaven, Lower Saxony, Germany

Now
61 °F

Passing clouds.


Feels Like: 61 °F
Forecast: 56 / 71 °F
Wind: 9 mph from East

Location: Nordholz

Current Time: Sep 16, 2014 at 3:58:19 AM

Latest Report: Sep 16, 2014 at 2:20 AM


Visibility: 4 mi

Pressure: 30.09 "Hg

Humidity: 94%

Dew point: 59 °F

Location of CuxhavenLocation

Historic Weather in Cuxhaven — Graph

°F

Cuxhaven temperature yesterday

Maximum temperature yesterday: 73 °F (at 4:20 PM)
Minimum temperature yesterday: 61 °F (at 12:20 AM)
Average temperature yesterday: 65 °F

Past Weeks' High & Low Weather Summary

 TemperatureHumidityPressure
High77 °F (Sep 5, 5:20 PM)100% (Sep 1, 3:20 AM)30.33 "Hg (Sep 1, 3:20 AM)
Low50 °F (Sep 3, 6:20 AM)50% (Sep 4, 6:20 PM)29.86 "Hg (Sep 6, 5:20 PM)
Average62 °F84%30.10 "Hg
* Reported Sep 1 2:20 AM — Sep 16 2:20 AM, Cuxhaven, Weather by CustomWeather, © 2014

Note: Actual official high and low records may vary slightly from our data, if they occured in-between our weather recording intervals... More about our weather records

Advertising

Cuxhaven weather history for previous 24 hours

 ConditionsComfort  
Time TempWeatherWind HumidityBarometerVisibility
2:20 AM
Sep 16
61 °FPassing clouds.9 mph94%30.09 "Hg4 mi
1:20 AM61 °FPassing clouds.7 mph94%30.09 "Hg4 mi
12:20 AM61 °FPassing clouds.7 mph94%30.09 "Hg4 mi
11:20 PM
Sep 15
63 °FPassing clouds.9 mph94%30.09 "Hg6 mi
10:20 PM64 °FPassing clouds.8 mph88%30.09 "HgN/A
9:20 PM66 °FPassing clouds.7 mph83%30.09 "HgN/A
8:20 PM68 °FPartly sunny.8 mph78%30.07 "Hg6 mi
7:20 PM68 °FBroken clouds.6 mph83%30.07 "HgN/A
6:20 PM72 °FPartly sunny.6 mph69%30.07 "HgN/A
5:20 PM73 °FPartly sunny.7 mph69%30.07 "HgN/A
4:20 PM73 °FBroken clouds.8 mph69%30.07 "HgN/A
3:20 PM72 °FPartly sunny.8 mph73%30.09 "Hg6 mi
2:20 PM70 °FPartly sunny.12 mph78%30.09 "Hg6 mi
1:20 PM68 °FPartly sunny.8 mph83%30.09 "Hg6 mi
12:20 PM66 °FPartly sunny.8 mph83%30.12 "Hg5 mi
11:20 AM64 °FPartly sunny.8 mph88%30.12 "Hg5 mi
10:20 AM63 °FPartly sunny.8 mph88%30.12 "Hg4 mi
9:20 AM61 °FFog.8 mph100%30.09 "Hg3 mi
8:20 AM61 °FFog.8 mph94%30.09 "Hg3 mi
7:20 AM61 °FFog.7 mph100%30.09 "Hg2 mi
6:20 AM61 °FFog.8 mph100%30.09 "Hg2 mi
5:20 AM61 °FDrizzle. Fog.7 mph100%30.09 "Hg2 mi
4:20 AM61 °FFog.3 mph100%30.09 "Hg2 mi
3:20 AM61 °FLight rain. Fog.3 mph100%30.12 "Hg2 mi
Weather by CustomWeather, © 2014

See weather overviewHow to use our weather pages